KOSEN 1
1 49402U 21102H   25342.63115519  .00010682  00000-0  44875-3 0  9990
2 49402  97.3471  23.6067 0015344 154.5910 205.6085 15.23508229224975
HO-113
1 50466U 21131B   25342.62311447  .00001181  00000-0  38049-3 0  9991
2 50466  98.5060  71.0656 0003288 321.6076  38.4878 14.41104521207664
SNUGLITE 2
1 52899U 22065F   25342.63257021  .00002713  00000-0  52887-3 0  9996
2 52899  98.1926 123.1886 0006394 260.4154  99.6326 14.63819264183116
UmKA 1 (RS40S)
1 57172U 23091G   25342.58972183  .00009436  00000-0  46483-3 0  9996
2 57172  97.5341  37.0722 0014934  66.4006 293.8794 15.18082752135063
CubeBel-2 (EU11S)
1 57175U 23091K   25342.51877986  .00017644  00000-0  73210-3 0  9995
2 57175  97.5339  39.4513 0012249  69.5071 290.7479 15.23852706135213
RS-38S
1 57189U 23091Z   25342.58373554  .00020557  00000-0  72692-3 0  9999
2 57189  97.5366  43.9319 0009095  36.7721 323.4141 15.29166299135496
SONATE-2
1 59112U 24043Q   25342.63716527  .00034798  00000-0  74305-3 0  9997
2 59112  97.5335 118.7360 0008959 176.6951 183.4358 15.44746955 98340
MO-122
1 60209U 24125G   25342.58145593  .00038606  00000-0  79132-3 0  9995
2 60209  97.2523 192.9514 0013805 194.0563 166.0305 15.45865706 79962
GRBBeta
1 60237U 24128C   25342.63131762  .00007268  00000-0  51061-3 0  9999
2 60237  61.9891 163.9278 0056375  95.7833 264.9690 15.04688499 77577
Curium One
1 60242U 24128H   25342.62058042  .00012479  00000-0  77425-3 0  9995
2 60242  61.9780 158.9396 0056030  92.7965 267.9544 15.08766692 77663
ROBUSTA-3A
1 60243U 24128J   25342.62210209  .00010017  00000-0  63565-3 0  9997
2 60243  61.9858 160.4481 0056179  90.2161 270.5370 15.08121198 77649
CatSat
1 60246U 24125J   25342.58203123  .00044193  00000-0  10794-2 0  9996
2 60246  97.2317 190.0122 0033977 159.2447 201.0189 15.40099009 77883
HYPERVIEW-1G (RS66S)
1 61772U 24199AP  25342.60461337  .00048193  00000-0  93931-3 0  9997
2 61772  97.3210 211.9887 0008011 257.0529 102.9826 15.47354664104977
AO-123
1 61781U 24199AY  25342.62270408  .00014356  00000-0  46830-3 0  9996
2 61781  97.3248 208.1179 0012907 272.4914  87.4850 15.31815610104710
ZIMSAT 2
1 61783U 24199BA  25342.59405145  .00212914  00000-0  16544-2 0  9990
2 61783  97.3094 215.3559 0003019 219.8330 140.2712 15.71131312108357
HADES-R (SO-124)
1 62690U 25009CK  25342.20678305  .00164727  00000-0  22342-2 0  9998
2 62690  97.3879  64.6580 0001278 229.9698 130.1446 15.57085030 50075
HYDRA-T
1 62692U 25009CM  25342.19024029  .00179548  00000-0  22884-2 0  9994
2 62692  97.3879  64.8308 0001399 246.0040 114.1070 15.58703338 50087
JINJUSat 1B
1 63210U 25052A   25342.65601814  .00023856  00000-0  91457-3 0  9996
2 63210  97.4197 234.8372 0005714  55.7833 304.3946 15.26491564 40969
NUSHSAT 1
1 63211U 25052B   25342.65411806  .00027380  00000-0  10170-2 0  9995
2 63211  97.4181 234.9517 0005816  58.4837 301.6970 15.27510691 40974
TEVEL2-4
1 63213U 25052D   25342.65319882  .00025783  00000-0  97726-3 0  9996
2 63213  97.4102 234.5110 0005213  71.0830 289.0974 15.26855671 40960
TEVEL2-5
1 63214U 25052E   25342.65846072  .00025496  00000-0  96859-3 0  9990
2 63214  97.4098 234.5046 0005150  71.1317 289.0480 15.26782086 40965
TEVEL2-6
1 63215U 25052F   25342.20684632  .00020990  00000-0  80001-3 0  9990
2 63215  97.4101 234.0444 0005253  72.6339 287.5474 15.26712930 40891
TEVEL2-1
1 63217U 25052H   25342.64189868  .00024603  00000-0  94533-3 0  9991
2 63217  97.4078 234.2909 0005439  80.3618 279.8235 15.26411094 40959
TEVEL2-3
1 63218U 25052J   25342.64115919  .00024997  00000-0  95974-3 0  9994
2 63218  97.4077 234.2957 0005464  80.5678 279.6178 15.26432802 40952
TEVEL2-2
1 63219U 25052K   25342.64267184  .00024975  00000-0  95949-3 0  9995
2 63219  97.4076 234.2922 0005447  80.9593 279.2262 15.26413112 40958
TEVEL2-9
1 63237U 25052AD  25342.27360607  .00019573  00000-0  78718-3 0  9991
2 63237  97.4139 233.6388 0009217  94.1524 266.0768 15.24908253 40865
TEVEL2-7
1 63238U 25052AE  25342.61520986  .00022103  00000-0  89174-3 0  9999
2 63238  97.4141 233.9522 0009362  92.9915 267.2395 15.24776115 40918
TEVEL2-8
1 63239U 25052AF  25342.62077824  .00022164  00000-0  89485-3 0  9991
2 63239  97.4138 233.9428 0009401  93.3817 266.8496 15.24750045 40911
HYDRA-W
1 63490U 25052BL  25342.48105033  .00080360  00000-0  19573-2 0  9990
2 63490  97.4063 236.2028 0011666  82.4660 277.7912 15.40557339 41060
HADES-ICM (SO-125)
1 63492U 25052BN  25342.66566339  .00072000  00000-0  18641-2 0  9999
2 63492  97.4068 236.1327 0011748  85.4187 274.8400 15.38727497 41078
Dragonfly
1 65729U 98067XH  25342.73110562  .00167478  00000-0  13272-2 0  9990
2 65729  51.6249 156.2650 0006525 251.4950 108.5339 15.70229086 12537
RSP-03
1 65732U 98067XL  25342.78755583  .00139916  00000-0  12545-2 0  9995
2 65732  51.6260 156.6485 0006171 224.9015 135.1483 15.67324417 12545
GHS-01
1 65733U 98067XM  25342.75315873  .00212788  00000-0  15078-2 0  9990
2 65733  51.6282 155.6685 0006910 251.9559 108.0687 15.72738443 12555
BOTAN
1 65942U 98067XP  25342.49651448  .00106961  00000-0  12043-2 0  9998
2 65942  51.6286 160.7119 0003647 203.3745 156.7083 15.61718865  9204
SPIRONE
1 66657U 25274H   25342.31923789  .00004147  00000-0  40987-3 0  9995
2 66657  97.7387 269.6010 0011001 292.9118  67.0939 14.92410974  1749
K-HERO
1 66660U 25274L   25342.58335657  .00004933  00000-0  48010-3 0  9997
2 66660  97.7393 269.8708 0012910 296.7617  63.2281 14.92923819  1781
CEVROSAT1
1 98526U 25248E   25313.13142326  .00000000  00000-0  19360-3 0    02
2 98526  45.4084 218.4764 0001315 254.8982 242.1062 15.17981583    02
